This demonstration page uses our WeatherBlox Daily Observations layout. Learn more.

36.17497, -115.13722

Hourly Observations for June 22, 2015

Temp ( °F °C ) Dew Point ( °F °C ) Humidity (%) Winds ( mph kmh ) Pressure ( in mb ) Visibility ( mi km ) Precip ( " mm )
12:53 am 00:53 Clear 91 32.8 19 -7.2 7 7 SSW 20 31 29.74 1007 10 16.0934 0 0
1:53 am 01:53 Clear 89 31.7 17 -8.3 7 7 SW 13 20 29.75 1007 10 16.0934 0 0
2:53 am 02:53 Clear 88 31.1 19 -7.2 8 8 SSW 8 13 29.76 1008 10 16.0934 0 0
3:53 am 03:53 Clear 87 30.6 22 -5.6 9 9 SSW 9 15 29.78 1008 10 16.0934 0 0
4:53 am 04:53 Clear 85 29.4 27 -2.8 12 12 SSW 10 17 29.78 1009 10 16.0934 0 0
5:53 am 05:53 Sunny 79 26.1 25 -3.9 14 14 NW 8 13 29.82 1010 10 16.0934 0 0
6:53 am 06:53 Sunny 81 27.2 31 -0.6 16 16 NW 8 13 29.84 1010 10 16.0934 0 0
7:53 am 07:53 Sunny 86 30 30 -1.1 13 13 NNW 6 9 29.86 1011 10 16.0934 0 0
8:53 am 08:53 Sunny 89 31.7 27 -2.8 11 11 Calm 29.87 1011 10 16.0934 0 0
9:53 am 09:53 Sunny 94 34.4 23 -5 8 8 Calm 29.86 1011 10 16.0934 0 0
10:53 am 10:53 Sunny 98 36.7 10 -12.2 4 4 SSW 7 11 29.85 1011 10 16.0934 0 0
11:53 am 11:53 Sunny 102 38.9 -17 -27.2 1 1 S 14 22 29.83 1010 10 16.0934 0 0
12:53 pm 12:53 Sunny 103 39.4 -33 -36.1 0 0 S 18 30 29.81 1010 10 16.0934 0 0
1:53 pm 13:53 Sunny 106 41 N/A N/A SSW 16 26 29.8 1009 10 16.0934 0 0
2:53 pm 14:53 Sunny 106 41 N/A N/A SSW 12 19 29.78 1008 10 16.0934 0 0
3:53 pm 15:53 Sunny 108 42 N/A N/A SSW 18 30 29.75 1008 10 16.0934 0 0
4:53 pm 16:53 Sunny 106 41.1 -52 -46.7 0 0 SSW 17 28 29.75 1007 10 16.0934 0 0
5:53 pm 17:53 Sunny 105 40.6 -25 -31.7 0 0 SSW 17 28 29.74 1007 10 16.0934 0 0
6:53 pm 18:53 Sunny 103 39.4 -11 -23.9 1 1 SW 17 28 29.74 1007 10 16.0934 0 0
7:53 pm 19:53 Sunny 101 38.3 -10 -23.3 1 1 SW 13 20 29.75 1007 10 16.0934 0 0
8:53 pm 20:53 Clear 97 36.1 -2 -18.9 2 2 SW 6 9 29.76 1008 10 16.0934 0 0
9:53 pm 21:53 Clear 94 34.4 2 -16.7 3 3 SSW 9 15 29.78 1008 10 16.0934 0 0
10:53 pm 22:53 Clear 92 33.3 4 -15.6 3 3 S 8 13 29.78 1009 10 16.0934 0 0
11:53 pm 23:53 Clear 90 32.2 7 -13.9 4 4 W 6 9 29.79 1009 10 16.0934 0 0

Powered by AerisWeather